Tracking 19485 objects as of 22-Jan-2019
HD Live streaming from Space Station
objects crossing your sky now

HISPASAT 1A

Track HISPASAT 1A now!
HISPASAT 1A is classified as:


NORAD ID: 22116
Int'l Code: 1992-060A
Perigee: 36,017.0 km
Apogee: 36,110.5 km
Inclination: 12.3 °
Period: 1,449.9 minutes
Semi major axis: 42434 km
RCS: 7.143 m2 (large)
Launch date: September 10, 1992
Source: Spain (SPN)
Launch site: FRENCH GUIANA (FRGUI)
aabbcc
Your satellite tracking list
Your tracking list is empty




NASA's NSSDC Master Catalog

Two Line Element Set (TLE):
1 22116U 92060A   19020.40100726 -.00000219 +00000-0 +00000-0 0  9994
2 22116 012.2567 030.0796 0011020 263.7281 268.9679 00.99316324092639
Source of the keplerian elements: AFSPC